Weather History for KAXN - April, 2014

Change the Weather History Date:

Monday, April 28, 2014

  Actual Average Record
Temperature  
Mean Temperature 39 °F -  
Max Temperature 41 °F 60 °F 91 °F (2004)
Min Temperature 37 °F 38 °F 18 °F (1956)
Degree Days  
Heating Degree Days 26    
Moisture  
Dew Point 37 °F    
Average Humidity 91    
Maximum Humidity 100    
Minimum Humidity 83    
Precipitation  
Precipitation 0.65 in - - ()
Sea Level Pressure  
Sea Level Pressure 29.66 in    
Wind  
Wind Speed 22 mph (East)    
Max Wind Speed 26 mph    
Max Gust Speed 37 mph    
Visibility 6 miles    
Events Rain    
Averages and records for this station are not official NWS values.
T = Trace of Precipitation, MM = Missing Value Source: NWS Daily Summary

Daily Weather History Graph

Daily Weather History Graph

Search for Another Location

Airport or City:

Trip Planner

Search our weather history database for the weather conditions in past years. The results will help you decide how hot, cold, wet, or windy it might be!

Date:

Astronomy

Apr. 28, 2014 Rise Set
Actual Time 6:13 AM CDT 8:25 PM CDT
Civil Twilight 5:40 AM CDT 8:58 PM CDT
Nautical Twilight 5:00 AM CDT 9:38 PM CDT
Astronomical Twilight 4:15 AM CDT 10:24 PM CDT
Moon 5:55 AM CDT (4/28) 8:03 PM CDT (4/28)
Length of Visible Light 15h 17m
Length of Day
14h 12m
Waning Crescent, 0% of the Moon is Illuminated
Apr 28
Waning Crescent
Apr 29
New
May 6
First Quarter
May 14
Full
May 21
Last Quarter

Hourly Weather History & Observations

Time (CDT) Temp. Windchill Dew Point Humidity Pressure Visibility Wind Dir Wind Speed Gust Speed Precip Events Conditions
3:38 AM 39.2 °F 29.6 °F 37.4 °F 93% 29.61 in 6.0 mi East 19.6 mph 28.8 mph 0.01 in Rain Rain
3:53 AM 39.0 °F 28.8 °F 37.0 °F 93% 29.64 in 4.0 mi East 21.9 mph 29.9 mph 0.04 in Rain Light Rain
5:43 AM 39.2 °F 28.3 °F 35.6 °F 87% 29.59 in 7.0 mi East 25.3 mph 34.5 mph 0.02 in Rain Light Rain
5:53 AM 39.0 °F 27.8 °F 36.0 °F 89% 29.63 in 7.0 mi East 26.5 mph 35.7 mph 0.03 in Rain Light Rain
6:34 AM 39.2 °F 28.7 °F 35.6 °F 87% 29.59 in 4.0 mi East 23.0 mph 36.8 mph 0.06 in Rain Rain
6:51 AM 39.2 °F 29.0 °F 35.6 °F 87% 29.59 in 6.0 mi East 21.9 mph 32.2 mph 0.08 in Rain Light Rain
6:53 AM 39.0 °F 29.3 °F 36.0 °F 89% 29.63 in 6.0 mi East 19.6 mph 32.2 mph 0.08 in Rain Light Rain
7:07 AM 37.4 °F 26.6 °F 35.6 °F 93% 29.60 in 2.5 mi East 21.9 mph 32.2 mph 0.06 in Rain Heavy Rain
7:20 AM 39.2 °F 29.6 °F 35.6 °F 87% 29.60 in 2.5 mi East 19.6 mph 26.5 mph 0.10 in Rain Rain
7:30 AM 39.2 °F 29.0 °F 35.6 °F 87% 29.60 in 4.0 mi East 21.9 mph 33.4 mph 0.11 in Rain Light Rain
7:33 AM 39.2 °F 28.7 °F 35.6 °F 87% 29.60 in 6.0 mi East 23.0 mph 33.4 mph 0.11 in Rain Light Rain
7:44 AM 39.2 °F 29.0 °F 35.6 °F 87% 29.60 in 6.0 mi East 21.9 mph 32.2 mph 0.11 in Rain Light Rain
7:53 AM 39.0 °F 28.8 °F 36.0 °F 89% 29.64 in 7.0 mi East 21.9 mph 29.9 mph 0.11 in   Overcast
9:01 AM 39.2 °F 28.7 °F 37.4 °F 93% 29.59 in 2.5 mi East 23.0 mph 33.4 mph 0.02 in Rain Rain
9:13 AM 39.2 °F 29.3 °F 37.4 °F 93% 29.59 in 2.5 mi East 20.7 mph 31.1 mph 0.05 in Rain Rain
9:22 AM 39.2 °F 28.0 °F 35.6 °F 87% 29.58 in 5.0 mi East 26.5 mph 35.7 mph 0.06 in Rain Light Rain
9:53 AM 39.0 °F 29.0 °F 37.0 °F 93% 29.63 in 7.0 mi East 20.7 mph 28.8 mph 0.07 in Rain Light Rain
10:53 AM 39.9 °F 30.8 °F - N/A% 29.63 in 5.0 mi East 18.4 mph 29.9 mph 0.05 in Rain Light Rain
11:53 AM 39.9 °F 29.0 °F 37.9 °F 93% 29.64 in 5.0 mi East 26.5 mph 34.5 mph 0.06 in Rain Light Rain
12:53 PM 39.9 °F 29.2 °F 37.9 °F 93% 29.65 in 5.0 mi East 25.3 mph 33.4 mph 0.05 in Rain Light Rain
1:53 PM 39.9 °F 29.7 °F 37.9 °F 93% 29.67 in 8.0 mi East 23.0 mph 32.2 mph 0.05 in Rain Light Rain
2:53 PM 39.9 °F 30.0 °F 37.9 °F 93% 29.68 in 6.0 mi East 21.9 mph 32.2 mph 0.03 in Rain Light Rain
4:53 PM 39.9 °F 29.2 °F 37.9 °F 93% 29.67 in 3.0 mi East 25.3 mph 36.8 mph 0.07 in Rain Rain
5:14 PM 39.2 °F 29.0 °F 37.4 °F 93% 29.65 in 6.0 mi East 21.9 mph 29.9 mph 0.01 in Rain Light Rain
5:53 PM 39.0 °F 28.3 °F 37.9 °F 96% 29.69 in 10.0 mi East 24.2 mph 33.4 mph 0.01 in   Overcast
6:37 PM 39.2 °F 29.3 °F 39.2 °F 100% 29.68 in 2.0 mi East 20.7 mph 27.6 mph N/A   Overcast
6:48 PM 39.2 °F 28.5 °F 39.2 °F 100% 29.68 in 3.0 mi East 24.2 mph 34.5 mph N/A   Overcast
6:53 PM 41.0 °F 31.1 °F 39.0 °F 93% 29.72 in 4.0 mi East 23.0 mph 34.5 mph N/A   Overcast
7:53 PM 39.9 °F 30.2 °F 37.0 °F 89% 29.73 in 10.0 mi East 20.7 mph 34.5 mph N/A   Overcast
8:53 PM 39.0 °F 28.3 °F 36.0 °F 89% 29.76 in 10.0 mi East 24.2 mph 34.5 mph N/A   Overcast
10:16 PM 37.4 °F 26.4 °F 33.8 °F 87% 29.75 in 10.0 mi ENE 23.0 mph 31.1 mph N/A   Overcast
10:53 PM 37.9 °F 27.1 °F 34.0 °F 86% 29.79 in 10.0 mi ENE 23.0 mph 28.8 mph N/A   Overcast
11:49 PM 37.4 °F 27.5 °F 33.8 °F 87% 29.77 in 10.0 mi ENE 18.4 mph - N/A   Overcast
11:53 PM 37.9 °F 27.3 °F 33.1 °F 83% 29.81 in 10.0 mi ENE 21.9 mph 27.6 mph N/A   Overcast